Flora, IL

8:53 AM CST on February 25, 2017 (GMT -0600)
Flora Municipal

Weather History for KFOA - April, 2013

Change the Weather History Date:

Friday, April 19, 2013

  Actual Average (KSLO) Record (KSLO)
Temperature  
Mean Temperature 42 °F -  
Max Temperature 47 °F 68 °F 83 °F (1971)
Min Temperature 36 °F 47 °F 22 °F (1983)
Degree Days  
Heating Degree Days 24    
Moisture  
Dew Point 31 °F    
Average Humidity 66    
Maximum Humidity 84    
Minimum Humidity 45    
Precipitation  
Precipitation 0.00 in - - ()
Sea Level Pressure  
Sea Level Pressure 29.88 in    
Wind  
Wind Speed 16 mph (West)    
Max Wind Speed 23 mph    
Max Gust Speed 30 mph    
Visibility 10 miles    
Events Rain    
Averages and records for this station are not official NWS values.
T = Trace of Precipitation, MM = Missing Value Source: NWS Daily Summary

Daily Weather History Graph

Daily Weather History Graph

Search for Another Location

Airport or City:

Trip Planner

Search our weather history database for the weather conditions in past years. The results will help you decide how hot, cold, wet, or windy it might be!

Date:

Astronomy

Apr. 19, 2013 Rise Set
Actual Time 6:11 AM CDT 7:34 PM CDT
Civil Twilight 5:43 AM CDT 8:02 PM CDT
Nautical Twilight 5:10 AM CDT 8:35 PM CDT
Astronomical Twilight 4:35 AM CDT 9:10 PM CDT
Moon 1:23 PM CDT (4/19) 2:22 AM CDT (4/19)
Length of Visible Light 14h 18m
Length of Day
13h 23m
First Quarter, 62% of the Moon is Illuminated
Apr 19
First Quarter
Apr 25
Full
May 2
Last Quarter
May 9
New
May 17
First Quarter

Hourly Weather History & Observations

Time (CDT) Temp. Windchill Dew Point Humidity Pressure Visibility Wind Dir Wind Speed Gust Speed Precip Events Conditions
12:15 AM 43.7 °F 35.4 °F 39.0 °F 84% 29.70 in 10.0 mi WNW 19.6 mph 25.3 mph N/A   Overcast
12:35 AM 42.4 °F 33.5 °F 35.8 °F 77% 29.72 in 10.0 mi WNW 20.7 mph 29.9 mph N/A   Mostly Cloudy
12:55 AM 42.3 °F 33.1 °F 35.4 °F 77% 29.71 in 10.0 mi WNW 21.9 mph 26.5 mph N/A   Mostly Cloudy
1:15 AM 42.6 °F 35.6 °F 36.0 °F 77% 29.72 in 10.0 mi WNW 13.8 mph 23.0 mph N/A   Overcast
1:35 AM 42.3 °F 33.6 °F 35.8 °F 78% 29.72 in 10.0 mi WNW 19.6 mph 24.2 mph N/A   Overcast
1:55 AM 41.5 °F 32.4 °F 34.9 °F 77% 29.72 in 10.0 mi WNW 20.7 mph 25.3 mph N/A   Mostly Cloudy
2:15 AM 41.4 °F 32.4 °F 34.5 °F 77% 29.72 in 10.0 mi West 19.6 mph 26.5 mph N/A   Mostly Cloudy
2:35 AM 41.0 °F 32.8 °F 34.2 °F 77% 29.72 in 10.0 mi West 16.1 mph 20.7 mph N/A   Overcast
2:55 AM 41.0 °F 32.8 °F 32.0 °F 70% 29.74 in 10.0 mi WNW 16.1 mph 27.6 mph N/A   Overcast
3:15 AM 41.0 °F 33.1 °F 32.0 °F 70% 29.74 in 10.0 mi WNW 15.0 mph 25.3 mph N/A   Overcast
3:35 AM 40.5 °F 32.1 °F 31.3 °F 70% 29.75 in 10.0 mi West 16.1 mph 23.0 mph N/A   Overcast
3:55 AM 39.7 °F 30.3 °F 30.4 °F 69% 29.76 in 10.0 mi West 19.6 mph 27.6 mph N/A   Overcast
4:15 AM 39.6 °F 32.5 °F 30.9 °F 71% 29.76 in 10.0 mi West 11.5 mph 21.9 mph N/A   Overcast
4:35 AM 39.6 °F 30.3 °F 30.7 °F 71% 29.76 in 10.0 mi WNW 18.4 mph 24.2 mph N/A   Overcast
4:55 AM 39.6 °F 30.6 °F 30.2 °F 69% 29.77 in 10.0 mi WNW 17.3 mph 27.6 mph N/A   Overcast
5:15 AM 39.6 °F 32.1 °F 30.2 °F 69% 29.77 in 10.0 mi West 12.7 mph 26.5 mph N/A   Overcast
5:35 AM 39.6 °F 32.1 °F 31.1 °F 72% 29.77 in 10.0 mi West 12.7 mph - N/A   Overcast
5:55 AM 39.6 °F 30.6 °F 29.7 °F 68% 29.79 in 10.0 mi WNW 17.3 mph 25.3 mph N/A   Overcast
6:15 AM 39.2 °F 30.8 °F 29.5 °F 68% 29.80 in 10.0 mi West 15.0 mph 20.7 mph N/A   Overcast
6:35 AM 39.2 °F 33.0 °F 28.2 °F 65% 29.81 in 10.0 mi West 9.2 mph 21.9 mph N/A   Overcast
6:55 AM 39.2 °F 32.5 °F 29.1 °F 67% 29.81 in 10.0 mi West 10.4 mph 20.7 mph N/A   Overcast
7:15 AM 39.2 °F 32.5 °F 30.2 °F 70% 29.82 in 10.0 mi West 10.4 mph - N/A   Overcast
7:35 AM 39.2 °F 30.8 °F 30.9 °F 72% 29.83 in 10.0 mi West 15.0 mph 25.3 mph N/A   Overcast
7:55 AM 38.3 °F 30.9 °F 31.6 °F 77% 29.85 in 10.0 mi West 11.5 mph 16.1 mph N/A Rain Light Rain
8:15 AM 38.8 °F 32.6 °F 31.5 °F 75% 29.85 in 4.0 mi West 9.2 mph - N/A   Haze
8:35 AM 39.2 °F 30.2 °F 30.4 °F 71% 29.86 in 10.0 mi West 17.3 mph 24.2 mph N/A   Overcast
8:55 AM 39.6 °F 30.3 °F 30.0 °F 69% 29.86 in 10.0 mi West 18.4 mph 23.0 mph N/A   Overcast
9:15 AM 39.4 °F 30.4 °F 29.7 °F 68% 29.86 in 10.0 mi West 17.3 mph 26.5 mph N/A   Overcast
9:35 AM 39.6 °F 31.0 °F 28.9 °F 66% 29.86 in 10.0 mi West 16.1 mph 27.6 mph N/A   Overcast
9:55 AM 39.7 °F 30.6 °F 28.6 °F 64% 29.86 in 10.0 mi West 18.4 mph 25.3 mph N/A   Overcast
10:15 AM 39.4 °F 31.1 °F 29.3 °F 67% 29.86 in 10.0 mi West 15.0 mph 26.5 mph N/A   Overcast
10:35 AM 40.3 °F 31.9 °F 29.3 °F 65% 29.87 in 10.0 mi West 16.1 mph 27.6 mph N/A   Overcast
10:55 AM 40.5 °F 31.5 °F 28.6 °F 63% 29.88 in 10.0 mi West 18.4 mph 26.5 mph N/A   Overcast
11:15 AM 39.7 °F 31.9 °F 29.5 °F 67% 29.88 in 10.0 mi West 13.8 mph 21.9 mph N/A   Overcast
11:35 AM 39.6 °F 30.6 °F 30.7 °F 71% 29.89 in 10.0 mi WSW 17.3 mph 24.2 mph N/A   Overcast
11:55 AM 40.3 °F 30.7 °F 30.4 °F 68% 29.89 in 10.0 mi WSW 20.7 mph 25.3 mph N/A   Overcast
12:15 PM 40.3 °F 31.0 °F 29.5 °F 65% 29.90 in 10.0 mi WSW 19.6 mph 27.6 mph N/A   Overcast
12:35 PM 40.8 °F 30.9 °F 28.6 °F 62% 29.90 in 10.0 mi West 23.0 mph 29.9 mph N/A   Overcast
12:55 PM 41.4 °F 32.4 °F 29.3 °F 62% 29.91 in 10.0 mi West 19.6 mph 26.5 mph N/A   Overcast
1:15 PM 41.2 °F 32.7 °F 28.4 °F 60% 29.91 in 10.0 mi West 17.3 mph 25.3 mph N/A   Overcast
1:35 PM 41.0 °F 33.5 °F 29.5 °F 64% 29.91 in 10.0 mi WSW 13.8 mph 25.3 mph N/A   Overcast
1:55 PM 41.0 °F 33.1 °F 28.9 °F 62% 29.92 in 10.0 mi WSW 15.0 mph 23.0 mph N/A   Overcast
2:15 PM 42.6 °F 35.2 °F 31.6 °F 65% 29.91 in 10.0 mi WSW 15.0 mph 19.6 mph N/A   Overcast
2:35 PM 42.4 °F 35.7 °F 30.7 °F 63% 29.91 in 10.0 mi WSW 12.7 mph 21.9 mph N/A   Overcast
2:55 PM 43.0 °F 35.7 °F 30.7 °F 62% 29.91 in 10.0 mi WSW 15.0 mph 19.6 mph N/A   Overcast
3:15 PM 43.7 °F 36.3 °F 30.4 °F 59% 29.91 in 10.0 mi WSW 16.1 mph - N/A   Overcast
3:35 PM 44.1 °F 36.2 °F 30.4 °F 59% 29.91 in 10.0 mi WSW 18.4 mph 25.3 mph N/A   Mostly Cloudy
3:55 PM 45.0 °F 38.5 °F 30.9 °F 58% 29.92 in 10.0 mi West 13.8 mph 20.7 mph N/A   Mostly Cloudy
4:15 PM 44.4 °F 37.5 °F 32.0 °F 62% 29.92 in 10.0 mi SW 15.0 mph 21.9 mph N/A   Light Drizzle
4:35 PM 45.1 °F 39.5 °F 31.6 °F 59% 29.92 in 10.0 mi West 11.5 mph 18.4 mph N/A   Mostly Cloudy
4:55 PM 45.9 °F 38.0 °F 30.7 °F 56% 29.93 in 10.0 mi WSW 20.7 mph 25.3 mph N/A   Mostly Cloudy
5:15 PM 45.9 °F 40.0 °F 31.8 °F 58% 29.94 in 10.0 mi West 12.7 mph 18.4 mph N/A   Scattered Clouds
5:35 PM 46.4 °F 41.1 °F 31.8 °F 57% 29.94 in 10.0 mi West 11.5 mph 17.3 mph N/A   Scattered Clouds
5:55 PM 45.9 °F 39.1 °F 32.0 °F 58% 29.95 in 10.0 mi WSW 16.1 mph 20.7 mph N/A   Scattered Clouds
6:15 PM 46.9 °F - 31.6 °F 55% 29.95 in 10.0 mi WSW 12.7 mph 17.3 mph N/A   Scattered Clouds
6:35 PM 47.7 °F - 31.1 °F 53% 29.95 in 10.0 mi West 6.9 mph - N/A   Mostly Cloudy
6:55 PM 47.5 °F - 27.1 °F 45% 29.96 in 10.0 mi WNW 15.0 mph 20.7 mph N/A   Mostly Cloudy
7:15 PM 46.6 °F - 27.3 °F 47% 29.97 in 10.0 mi West 13.8 mph 18.4 mph N/A   Mostly Cloudy
7:35 PM 46.0 °F 40.2 °F 27.9 °F 49% 29.98 in 10.0 mi West 12.7 mph 20.7 mph N/A   Mostly Cloudy
7:55 PM 45.9 °F 39.7 °F 28.2 °F 50% 29.99 in 10.0 mi West 13.8 mph 20.7 mph N/A   Mostly Cloudy
8:15 PM 45.9 °F 40.8 °F 28.6 °F 51% 30.00 in 10.0 mi West 10.4 mph - N/A   Overcast
8:35 PM 44.8 °F 39.9 °F 28.6 °F 53% 30.01 in 10.0 mi West 9.2 mph 18.4 mph N/A   Scattered Clouds
8:55 PM 44.2 °F 39.2 °F 28.6 °F 54% 30.02 in 10.0 mi West 9.2 mph - N/A   Clear
9:15 PM 43.0 °F 38.8 °F 29.1 °F 58% 30.03 in 10.0 mi West 6.9 mph - N/A   Clear
9:35 PM 41.9 °F 38.2 °F 29.3 °F 61% 30.04 in 10.0 mi West 5.8 mph - N/A   Clear
9:55 PM 39.6 °F 37.4 °F 30.7 °F 71% 30.04 in 10.0 mi SW 3.5 mph - N/A   Clear
10:15 PM 37.0 °F 34.5 °F 32.0 °F 82% 30.05 in 10.0 mi SW 3.5 mph - N/A   Clear
10:35 PM 37.0 °F 32.4 °F 32.0 °F 82% 30.05 in 10.0 mi SW 5.8 mph - N/A   Clear
10:55 PM 40.1 °F 36.1 °F 30.0 °F 67% 30.05 in 10.0 mi West 5.8 mph - N/A   Clear
11:15 PM 38.5 °F 35.0 °F 30.6 °F 73% 30.05 in 10.0 mi SW 4.6 mph - N/A   Clear
11:35 PM 36.7 °F 32.9 °F 30.9 °F 80% 30.06 in 10.0 mi WSW 4.6 mph - N/A   Clear
11:55 PM 38.1 °F 33.7 °F 30.2 °F 73% 30.06 in 10.0 mi WSW 5.8 mph - N/A   Clear